When you browse on this site, cookies collect data to enhance your experience and personalize the content and advertising you see.
Visit our Privacy Policy to learn more. By continuing to use the site, you agree to this use of cookies and data.
  • In United Kingdom
  • List of Countries
  • For 7 days
  • Water Temperature
  • Satellite Maps
  • Weather Map
  • Weather Widgets
  • user-avatar
    Login

    Hourly Weather Gomel

    Today, 25 March, Monday

    Time Temperature Precipitation Wind Pressure Humidity
    00:00 +3°C° 0 mm 2 mps 749 mmHg 70%
    01:00 +2°C° 0 mm 2 mps 749 mmHg 71%
    02:00 +1°C° 0 mm 2 mps 749 mmHg 73%
    03:00 +2°C° 0 mm 1 mps 748 mmHg 73%
    04:00 +2°C° 0 mm 1 mps 748 mmHg 73%
    05:00 +1°C° 0 mm 1 mps 748 mmHg 73%
    06:00 +2°C° 0 mm 1 mps 748 mmHg 69%
    07:00 +2°C° 0 mm 0 mps 748 mmHg 64%
    08:00 +4°C° 0 mm 0 mps 747 mmHg 59%
    09:00 +6°C° 0 mm 1 mps 747 mmHg 54%
    10:00 +7°C° 0 mm 1 mps 747 mmHg 49%
    11:00 +8°C° 0 mm 2 mps 746 mmHg 44%
    12:00 +8°C° 0 mm 2 mps 746 mmHg 43%
    13:00 +8°C° 0 mm 2 mps 745 mmHg 42%
    14:00 +9°C° 0 mm 2 mps 745 mmHg 41%
    15:00 +9°C° 0 mm 2 mps 745 mmHg 43%
    16:00 +9°C° 0 mm 1 mps 744 mmHg 45%
    17:00 +9°C° 0 mm 1 mps 744 mmHg 48%
    18:00 +8°C° 0 mm 1 mps 744 mmHg 50%
    19:00 +8°C° 0 mm 1 mps 744 mmHg 53%
    20:00 +7°C° 0 mm 1 mps 744 mmHg 55%
    21:00 +6°C° 0 mm 1 mps 744 mmHg 58%
    22:00 +6°C° 0 mm 1 mps 744 mmHg 62%
    23:00 +4°C° 0 mm 2 mps 744 mmHg 65%

    Tomorrow, 26 March, Tuesday

    Time Temperature Precipitation Wind Pressure Humidity
    00:00 +5°C° 0 mm 1 mps 744 mmHg 66%
    01:00 +5°C° 0 mm 1 mps 744 mmHg 68%
    02:00 +4°C° 0 mm 1 mps 744 mmHg 69%
    03:00 +4°C° 0 mm 1 mps 743 mmHg 69%
    04:00 +4°C° 0 mm 1 mps 743 mmHg 69%
    05:00 +4°C° 0 mm 1 mps 743 mmHg 69%
    06:00 +3°C° 0.2 mm 2 mps 743 mmHg 69%
    07:00 +2°C° 0.2 mm 3 mps 744 mmHg 69%
    08:00 +2°C° 0.2 mm 3 mps 744 mmHg 70%
    09:00 +3°C° 0.4 mm 4 mps 744 mmHg 70%
    10:00 +2°C° 0.4 mm 5 mps 744 mmHg 70%
    11:00 +3°C° 0.4 mm 5 mps 745 mmHg 70%
    12:00 +3°C° 0.1 mm 6 mps 745 mmHg 62%
    13:00 +4°C° 0.1 mm 6 mps 745 mmHg 53%
    14:00 +4°C° 0.1 mm 6 mps 745 mmHg 45%
    15:00 +4°C° 0 mm 6 mps 745 mmHg 45%
    16:00 +3°C° 0 mm 5 mps 746 mmHg 46%
    17:00 +4°C° 0 mm 4 mps 746 mmHg 46%
    18:00 +3°C° 0 mm 3 mps 746 mmHg 51%
    19:00 +2°C° 0 mm 3 mps 746 mmHg 55%
    20:00 +2°C° 0 mm 2 mps 746 mmHg 60%
    21:00 +1°C° 0 mm 2 mps 746 mmHg 61%
    22:00 +2°C° 0 mm 1 mps 746 mmHg 62%
    23:00 +2°C° 0 mm 1 mps 746 mmHg 64%

    Day after tomorrow, 27 March, Wednesday

    Time Temperature Precipitation Wind Pressure Humidity
    00:00 +2°C° 0 mm 1 mps 746 mmHg 64%
    01:00 +1°C° 0 mm 0 mps 746 mmHg 64%
    02:00 +1°C° 0 mm 0 mps 746 mmHg 64%
    03:00 +2°C° 0.1 mm 1 mps 746 mmHg 66%
    04:00 +2°C° 0.1 mm 1 mps 747 mmHg 68%
    05:00 -1°C° 0.1 mm 2 mps 747 mmHg 70%
    06:00 0°C° 0.1 mm 3 mps 748 mmHg 72%
    07:00 -1°C° 0.1 mm 4 mps 749 mmHg 74%
    08:00 -1°C° 0.1 mm 4 mps 749 mmHg 76%
    09:00 0°C° 0 mm 5 mps 750 mmHg 67%
    10:00 +1°C° 0 mm 5 mps 751 mmHg 58%
    11:00 +1°C° 0 mm 6 mps 752 mmHg 49%
    12:00 +2°C° 0 mm 6 mps 752 mmHg 47%
    13:00 +2°C° 0 mm 6 mps 753 mmHg 45%
    14:00 +3°C° 0 mm 6 mps 753 mmHg 42%
    15:00 +2°C° 0 mm 6 mps 753 mmHg 45%
    16:00 +2°C° 0 mm 6 mps 754 mmHg 47%
    17:00 +1°C° 0 mm 6 mps 754 mmHg 50%
    18:00 0°C° 0 mm 5 mps 755 mmHg 55%
    19:00 -1°C° 0 mm 4 mps 756 mmHg 60%
    20:00 -1°C° 0 mm 3 mps 756 mmHg 66%
    21:00 -1°C° 0 mm 3 mps 757 mmHg 67%
    22:00 -2°C° 0 mm 3 mps 757 mmHg 68%
    23:00 -2°C° 0 mm 3 mps 757 mmHg 70%

    28 March, Thursday

    Time Temperature Precipitation Wind Pressure Humidity
    00:00 -2°C° 0 mm 3 mps 758 mmHg 70%
    01:00 -2°C° 0 mm 3 mps 758 mmHg 70%
    02:00 -2°C° 0 mm 3 mps 759 mmHg 70%
    03:00 -2°C° 0 mm 3 mps 759 mmHg 70%
    04:00 -4°C° 0 mm 3 mps 759 mmHg 69%
    05:00 -3°C° 0 mm 2 mps 759 mmHg 69%
    06:00 -2°C° 0 mm 3 mps 760 mmHg 63%
    07:00 -1°C° 0 mm 3 mps 760 mmHg 57%
    08:00 -1°C° 0 mm 4 mps 760 mmHg 51%
    09:00 0°C° 0 mm 4 mps 761 mmHg 46%
    10:00 +1°C° 0 mm 4 mps 761 mmHg 41%
    11:00 +3°C° 0 mm 4 mps 761 mmHg 35%
    12:00 +4°C° 0 mm 4 mps 761 mmHg 34%
    13:00 +4°C° 0 mm 4 mps 761 mmHg 32%
    14:00 +5°C° 0 mm 4 mps 761 mmHg 30%
    15:00 +4°C° 0 mm 3 mps 761 mmHg 33%
    16:00 +4°C° 0 mm 3 mps 760 mmHg 36%
    17:00 +5°C° 0 mm 2 mps 760 mmHg 39%
    18:00 +4°C° 0 mm 2 mps 761 mmHg 42%
    19:00 +2°C° 0 mm 2 mps 761 mmHg 46%
    20:00 +1°C° 0 mm 2 mps 761 mmHg 50%
    21:00 +1°C° 0 mm 2 mps 761 mmHg 52%
    22:00 +1°C° 0 mm 2 mps 761 mmHg 54%
    23:00 +1°C° 0 mm 2 mps 761 mmHg 57%

    29 March, Friday

    Time Temperature Precipitation Wind Pressure Humidity
    00:00 0°C° 0 mm 3 mps 761 mmHg 61%
    01:00 0°C° 0 mm 3 mps 760 mmHg 65%
    02:00 -1°C° 0 mm 3 mps 760 mmHg 70%
    03:00 -1°C° 0 mm 3 mps 760 mmHg 72%
    04:00 -1°C° 0 mm 3 mps 760 mmHg 75%
    05:00 -1°C° 0 mm 3 mps 759 mmHg 77%
    06:00 -1°C° 0 mm 4 mps 759 mmHg 77%
    07:00 +1°C° 0 mm 4 mps 759 mmHg 76%
    08:00 +2°C° 0 mm 5 mps 759 mmHg 75%
    09:00 +3°C° 0 mm 5 mps 759 mmHg 70%
    10:00 +5°C° 0 mm 6 mps 759 mmHg 65%
    11:00 +8°C° 0 mm 6 mps 758 mmHg 59%
    12:00 +9°C° 0 mm 6 mps 758 mmHg 56%
    13:00 +10°C° 0 mm 6 mps 758 mmHg 53%
    14:00 +10°C° 0 mm 6 mps 757 mmHg 50%
    15:00 +10°C° 0 mm 5 mps 757 mmHg 51%
    16:00 +10°C° 0 mm 5 mps 757 mmHg 53%
    17:00 +11°C° 0 mm 4 mps 757 mmHg 55%
    18:00 +8°C° 0 mm 4 mps 757 mmHg 60%
    19:00 +7°C° 0 mm 4 mps 757 mmHg 64%
    20:00 +7°C° 0 mm 3 mps 757 mmHg 68%
    21:00 +5°C° 0 mm 3 mps 757 mmHg 71%
    22:00 +5°C° 0 mm 3 mps 757 mmHg 73%
    23:00 +5°C° 0 mm 3 mps 757 mmHg 76%

    30 March, Saturday

    Time Temperature Precipitation Wind Pressure Humidity
    00:00 +4°C° 0 mm 3 mps 757 mmHg 79%
    01:00 +3°C° 0 mm 3 mps 757 mmHg 81%
    02:00 +3°C° 0 mm 3 mps 757 mmHg 84%
    03:00 +3°C° 0 mm 3 mps 757 mmHg 86%
    04:00 +2°C° 0 mm 3 mps 756 mmHg 88%
    05:00 +3°C° 0 mm 2 mps 756 mmHg 90%
    06:00 +3°C° 0 mm 3 mps 756 mmHg 87%
    07:00 +4°C° 0 mm 3 mps 756 mmHg 83%
    08:00 +5°C° 0 mm 3 mps 756 mmHg 80%
    09:00 +8°C° 0 mm 3 mps 756 mmHg 75%
    10:00 +8°C° 0 mm 4 mps 756 mmHg 69%
    11:00 +11°C° 0 mm 4 mps 756 mmHg 64%
    12:00 +12°C° 0 mm 4 mps 756 mmHg 60%
    13:00 +13°C° 0 mm 4 mps 755 mmHg 56%
    14:00 +14°C° 0 mm 5 mps 755 mmHg 53%
    15:00 +14°C° 0 mm 4 mps 755 mmHg 54%
    16:00 +14°C° 0 mm 4 mps 754 mmHg 56%
    17:00 +13°C° 0 mm 4 mps 754 mmHg 57%
    18:00 +12°C° 0 mm 3 mps 754 mmHg 63%
    19:00 +10°C° 0 mm 3 mps 754 mmHg 69%
    20:00 +9°C° 0 mm 2 mps 754 mmHg 75%
    21:00 +8°C° 0 mm 2 mps 754 mmHg 79%
    22:00 +8°C° 0 mm 2 mps 754 mmHg 82%
    23:00 +7°C° 0 mm 2 mps 754 mmHg 85%
    Show more